Temp
7 7 7 7 7 7 7 6 6 6 6 6 6 6 6 6 5 5 5 5 5 5 5 5 5 5 4 4 3 4 4 4 4 4 4 4 4 4 4 4 4 4 4
7 7 6 7 6 6 7 7 7 6 6 6 6 6 5 5 4 4 4 4 5 4 4 4 4 4 4 4 3 3 3 3 3 4 4 4 3 3 3 3 4 4 4
6 6 6 6 6 6 6 6 6 6 5 5 5 5 5 5 4 4 4 4 4 4 4 4 4 4 3 2 2 2 2 3 3 3 3 3 4 3 3 3 3 3 3
6 6 6 6 6 6 6 5 5 5 5 5 5 5 5 5 5 5 5 5 5 5 4 4 4 3 3 3 1 1 1 2 2 2 2 2 3 3 3 3 3 2 2
6 6 6 6 5 5 5 4 4 5 5 5 5 5 5 5 5 5 5 5 4 4 4 3 3 3 2 2 2 2 2 2 1 1 1 1 1 2 2 2 2 2 2
6 5 5 5 4 4 4 4 4 4 5 5 5 5 5 5 5 5 4 4 3 3 3 3 2 2 1 0 0 -0 -0 0 0 1 1 1 0 1 1 1 1 1 2
5 5 4 4 4 4 4 4 5 5 5 5 5 5 5 5 5 4 4 3 3 2 1 1 1 0 0 0 0 0 -0 -1 -1 -1 -0 -0 0 0 0 -0 -0 0 1
4 4 3 3 4 4 4 5 5 5 5 5 5 6 6 6 5 4 4 3 3 2 2 1 1 0 -0 -1 -1 -1 -1 -1 -1 -1 -1 -1 -1 -1 -1 -0 -0 -0 -1
4 3 3 3 4 4 4 4 4 5 5 4 4 3 3 4 5 5 4 3 3 2 1 -0 -0 -1 -1 -1 -2 -2 -1 -1 -1 -1 -1 -1 -2 -2 -2 -1 -1 -2 -1
3 3 3 3 4 4 4 4 4 4 4 4 3 2 1 0 1 3 4 2 1 1 -0 -1 -1 -2 -2 -2 -2 -2 -2 -2 -2 -2 -2 -2 -2 -3 -3 -3 -3 -3 -4
2 3 3 4 4 4 4 4 3 3 2 2 1 1 1 0 -1 -1 0 0 -0 -1 -1 -2 -2 -3 -3 -3 -3 -3 -3 -3 -3 -3 -4 -4 -4 -4 -4 -5 -8 -7 -6
3 3 3 3 3 3 3 3 2 2 1 1 0 -0 -1 -1 -1 -1 -1 -1 -2 -2 -3 -3 -4 -4 -4 -4 -4 -4 -4 -4 -4 -4 -5 -6 -7 -7 -7 -10 -10 -9 -9
2 2 2 3 3 2 2 2 1 1 0 -0 -1 -1 -2 -2 -3 -3 -3 -3 -3 -3 -3 -4 -4 -5 -5 -5 -5 -6 -6 -6 -6 -7 -7 -7 -8 -8 -8 -9 -12 -11 -10
1 1 2 2 2 2 1 1 0 -0 -1 -1 -2 -2 -2 -3 -4 -4 -4 -5 -4 -4 -4 -4 -5 -5 -5 -6 -7 -8 -9 -9 -9 -9 -10 -9 -9 -9 -10 -10 -13 -14 -13
1 1 1 1 1 1 0 -0 -1 -1 -1 -2 -2 -3 -3 -4 -4 -5 -5 -6 -7 -5 -5 -5 -5 -6 -7 -8 -9 -10 -11 -11 -11 -11 -12 -11 -11 -11 -14 -11 -11 -11 -13
0 0 0 0 -0 -0 -0 -1 -1 -2 -2 -3 -3 -4 -4 -5 -5 -6 -6 -7 -8 -8 -7 -6 -6 -6 -8 -10 -11 -13 -13 -13 -12 -12 -13 -13 -16 -15 -14 -13 -13 -14 -15
-0 0 -0 -0 -1 -1 -1 -2 -2 -2 -3 -4 -4 -5 -5 -6 -6 -7 -7 -8 -8 -10 -10 -7 -7 -8 -8 -10 -11 -13 -15 -15 -14 -14 -14 -15 -15 -14 -14 -14 -14 -14 -14
-0 -0 -1 -1 -2 -2 -2 -2 -3 -4 -4 -4 -5 -6 -6 -7 -7 -8 -8 -9 -10 -10 -12 -11 -8 -9 -11 -12 -12 -13 -14 -15 -15 -16 -16 -16 -15 -15 -15 -14 -13 -15 -15
-1 -1 -2 -2 -2 -2 -3 -4 -4 -4 -5 -6 -6 -7 -7 -8 -8 -9 -10 -10 -11 -12 -13 -14 -13 -13 -14 -15 -15 -16 -16 -16 -17 -17 -17 -16 -16 -15 -14 -14 -14 -14 -13
-2 -2 -2 -2 -3 -4 -4 -4 -4 -5 -6 -7 -7 -8 -8 -9 -9 -10 -11 -12 -13 -14 -14 -15 -17 -17 -18 -17 -17 -17 -16 -16 -16 -16 -16 -16 -16 -15 -15 -15 -15 -14 -14
-2 -3 -3 -3 -4 -5 -5 -5 -6 -7 -7 -7 -8 -8 -9 -10 -11 -12 -13 -13 -14 -15 -16 -18 -18 -18 -18 -17 -17 -17 -17 -16 -16 -16 -15 -14 -15 -15 -14 -15 -15 -14 -14
-3 -3 -4 -4 -5 -5 -6 -7 -8 -8 -8 -8 -8 -9 -10 -11 -12 -13 -14 -15 -16 -18 -18 -18 -18 -18 -18 -17 -17 -17 -17 -17 -16 -16 -16 -14 -16 -14 -14 -14 -14 -14 -14
-4 -4 -5 -5 -6 -7 -8 -8 -8 -8 -8 -9 -9 -10 -10 -12 -14 -14 -14 -15 -16 -18 -18 -19 -19 -18 -17 -17 -18 -18 -17 -17 -17 -16 -16 -14 -15 -14 -14 -14 -14 -14 -14
-5 -5 -6 -6 -7 -8 -8 -8 -8 -8 -9 -10 -11 -12 -13 -14 -14 -16 -16 -17 -19 -19 -18 -18 -18 -18 -18 -18 -18 -18 -18 -18 -17 -17 -17 -15 -15 -15 -15 -15 -14 -14 -13
-6 -6 -7 -8 -8 -9 -9 -9 -9 -10 -10 -11 -12 -14 -15 -15 -16 -17 -18 -19 -18 -17 -18 -17 -17 -17 -17 -18 -18 -18 -18 -18 -17 -16 -17 -17 -16 -16 -15 -15 -15 -14 -14
-6 -7 -8 -9 -9 -9 -9 -10 -11 -12 -12 -13 -13 -14 -15 -16 -17 -18 -19 -18 -17 -18 -17 -17 -17 -17 -17 -17 -17 -17 -17 -18 -18 -17 -17 -18 -17 -17 -15 -14 -14 -14 -14
Height
3121 3120 3118 3117 3115 3114 3112 3110 3107 3105 3103 3101 3099 3096 3094 3092 3090 3087 3085 3083 3081 3079 3077 3075 3073 3072 3071 3070 3069 3068 3067 3066 3065 3064 3064 3063 3062 3063 3063 3063 3063 3063 3064
3117 3116 3114 3112 3111 3109 3107 3105 3102 3099 3096 3094 3092 3090 3088 3086 3084 3081 3078 3076 3074 3071 3069 3067 3065 3063 3062 3060 3060 3059 3058 3057 3055 3055 3054 3053 3053 3052 3052 3053 3053 3053 3054
3113 3111 3109 3108 3106 3104 3102 3099 3096 3094 3091 3088 3086 3084 3082 3080 3078 3074 3072 3068 3067 3065 3062 3058 3055 3054 3052 3051 3049 3048 3048 3047 3045 3044 3043 3043 3042 3041 3041 3041 3041 3041 3042
3109 3108 3106 3104 3101 3099 3097 3093 3090 3088 3085 3082 3080 3078 3075 3073 3069 3065 3063 3060 3057 3054 3052 3049 3045 3044 3042 3041 3039 3037 3035 3034 3033 3031 3030 3029 3029 3029 3028 3028 3029 3029 3030
3105 3103 3101 3099 3096 3094 3091 3088 3085 3082 3079 3076 3073 3071 3068 3065 3061 3058 3055 3052 3049 3045 3042 3040 3036 3033 3031 3029 3026 3024 3021 3020 3018 3018 3017 3015 3014 3013 3014 3015 3015 3016 3016
3101 3099 3097 3094 3091 3089 3086 3083 3080 3076 3071 3067 3064 3062 3059 3057 3052 3049 3045 3043 3039 3036 3033 3029 3026 3024 3020 3017 3014 3011 3008 3006 3006 3005 3003 3001 2999 2999 2999 3000 3000 3000 3000
3096 3095 3093 3090 3087 3084 3081 3077 3074 3069 3064 3060 3056 3054 3052 3049 3044 3042 3038 3034 3031 3027 3024 3020 3016 3013 3010 3007 3004 3001 2998 2994 2991 2987 2986 2986 2986 2986 2984 2984 2984 2983 2984
3093 3091 3088 3086 3083 3079 3074 3070 3065 3062 3058 3050 3045 3041 3038 3041 3035 3033 3031 3027 3023 3018 3015 3010 3006 3002 2997 2992 2989 2987 2984 2981 2977 2974 2972 2970 2968 2969 2967 2966 2966 2967 2967
3089 3086 3084 3081 3076 3072 3068 3063 3059 3054 3051 3047 3039 3033 3025 3021 3018 3020 3017 3013 3008 3003 3000 2996 2993 2989 2984 2979 2976 2973 2969 2966 2962 2961 2958 2954 2951 2949 2947 2948 2948 2946 2948
3085 3081 3078 3075 3070 3066 3061 3057 3052 3047 3043 3039 3037 3029 3021 3011 3002 2992 2998 3000 2996 2992 2988 2983 2979 2975 2969 2964 2960 2956 2953 2948 2945 2941 2938 2934 2931 2929 2927 2927 2927 2928 2929
3079 3076 3072 3068 3063 3059 3054 3050 3045 3040 3035 3031 3025 3021 3017 3011 3003 2989 2974 2978 2980 2979 2975 2970 2965 2960 2954 2949 2944 2939 2934 2930 2925 2921 2916 2912 2908 2906 2905 2904 2904 2905 2906
3073 3069 3065 3061 3056 3052 3048 3043 3038 3033 3028 3022 3017 3010 3003 2997 2991 2984 2975 2968 2959 2956 2952 2949 2946 2940 2936 2931 2927 2922 2916 2911 2906 2902 2898 2893 2889 2885 2882 2880 2881 2882 2884
3068 3063 3059 3054 3049 3045 3040 3035 3030 3025 3020 3014 3008 3002 2996 2990 2981 2973 2963 2953 2944 2942 2939 2935 2929 2922 2914 2907 2901 2896 2893 2890 2885 2882 2878 2874 2869 2865 2862 2860 2858 2860 2862
3061 3057 3052 3047 3042 3036 3031 3026 3021 3016 3011 3005 2999 2992 2985 2979 2972 2965 2955 2943 2931 2928 2927 2923 2918 2909 2900 2891 2884 2879 2874 2870 2865 2862 2859 2854 2851 2848 2845 2842 2841 2840 2841
3054 3049 3044 3039 3034 3028 3023 3017 3012 3006 3001 2994 2988 2981 2974 2968 2960 2954 2946 2936 2924 2909 2906 2910 2899 2897 2886 2875 2869 2862 2857 2853 2849 2845 2840 2835 2833 2830 2825 2824 2822 2821 2821
3047 3042 3037 3031 3026 3020 3014 3008 3002 2997 2990 2984 2977 2969 2963 2955 2947 2940 2932 2924 2915 2903 2887 2896 2889 2879 2870 2859 2853 2846 2842 2837 2834 2829 2823 2819 2816 2814 2810 2808 2805 2804 2805
3039 3034 3028 3023 3017 3012 3006 2999 2992 2986 2980 2973 2967 2958 2951 2942 2933 2926 2918 2910 2901 2891 2878 2878 2873 2865 2857 2847 2840 2833 2825 2820 2816 2814 2809 2806 2802 2799 2795 2790 2789 2789 2787
3031 3025 3020 3014 3009 3003 2996 2990 2983 2977 2970 2962 2954 2945 2937 2929 2921 2913 2904 2896 2887 2879 2866 2856 2857 2847 2840 2833 2826 2818 2811 2807 2802 2798 2795 2791 2788 2783 2778 2776 2773 2769 2768
3023 3017 3011 3006 3000 2994 2988 2981 2973 2965 2958 2949 2941 2932 2924 2915 2907 2899 2891 2882 2873 2864 2855 2845 2836 2832 2824 2817 2809 2803 2796 2791 2787 2782 2778 2774 2769 2766 2763 2759 2756 2754 2752
3015 3009 3004 2997 2991 2985 2977 2970 2962 2954 2946 2939 2930 2921 2911 2903 2894 2885 2877 2868 2860 2851 2844 2835 2826 2818 2812 2805 2798 2788 2780 2776 2769 2766 2761 2758 2754 2751 2748 2745 2741 2738 2737
3007 3001 2995 2988 2982 2975 2966 2958 2950 2942 2934 2926 2918 2909 2900 2891 2883 2874 2864 2856 2848 2840 2831 2824 2816 2808 2800 2792 2785 2777 2767 2760 2756 2753 2747 2745 2739 2737 2734 2731 2728 2726 2724
2999 2993 2986 2979 2972 2964 2956 2949 2940 2931 2923 2914 2905 2897 2888 2879 2870 2863 2854 2846 2839 2831 2822 2815 2807 2796 2788 2781 2773 2765 2756 2749 2741 2745 2736 2730 2728 2725 2721 2718 2716 2713 2712
2991 2985 2978 2970 2962 2955 2947 2938 2929 2920 2912 2903 2894 2884 2876 2867 2857 2848 2841 2833 2826 2820 2815 2806 2795 2787 2776 2771 2762 2754 2748 2741 2734 2730 2725 2715 2717 2710 2707 2704 2701 2699 2697
2983 2976 2969 2961 2953 2945 2935 2927 2918 2909 2901 2892 2882 2871 2862 2854 2845 2836 2827 2820 2814 2807 2802 2794 2785 2776 2769 2762 2755 2747 2738 2729 2723 2721 2717 2703 2702 2695 2693 2690 2688 2684 2682
2976 2969 2961 2952 2943 2935 2926 2915 2905 2898 2890 2881 2871 2862 2852 2842 2834 2826 2819 2811 2801 2796 2790 2783 2776 2769 2762 2755 2747 2737 2729 2721 2713 2709 2709 2695 2691 2683 2680 2676 2675 2672 2668
2967 2959 2952 2943 2934 2924 2915 2905 2895 2885 2878 2869 2862 2852 2843 2834 2825 2818 2811 2800 2791 2785 2778 2772 2767 2761 2754 2746 2740 2732 2722 2713 2706 2699 2700 2688 2681 2677 2666 2667 2665 2661 2657
Wind_Speed
16 16 17 19 20 22 23 23 24 25 26 27 27 28 28 27 27 27 27 28 29 29 29 30 30 30 30 30 31 32 33 34 35 35 36 37 38 38 39 39 39 40 40
16 17 19 20 22 24 25 26 28 30 31 31 30 30 29 29 29 30 31 32 33 33 34 35 35 35 34 34 33 34 34 34 36 36 38 39 39 41 42 42 42 42 42
18 19 20 21 23 26 27 28 30 31 31 32 32 32 33 32 33 34 36 38 38 38 38 38 38 37 36 33 30 31 36 36 37 39 40 41 43 43 43 45 45 46 46
20 21 23 24 26 29 30 30 30 31 32 34 35 36 37 38 40 41 40 39 39 39 38 38 39 38 38 36 38 38 41 38 37 39 40 43 46 48 47 47 46 48 49
20 21 24 26 27 29 29 30 32 34 36 37 38 39 39 39 39 39 38 36 35 35 35 35 36 37 37 39 40 40 41 40 39 42 42 43 47 47 48 51 52 51 50
21 22 23 25 27 28 30 32 34 36 40 42 41 39 38 37 38 36 35 35 35 36 36 37 38 38 38 39 40 41 43 44 43 44 50 51 50 49 49 52 52 53 54
20 22 23 25 28 30 33 35 37 37 37 39 39 38 35 33 35 34 36 36 36 36 36 37 38 39 39 40 41 43 44 44 45 47 48 49 52 56 58 54 52 58 58
20 21 23 26 29 32 35 35 35 36 36 40 41 41 41 36 37 35 34 34 35 36 37 37 38 39 41 43 44 43 44 45 48 50 51 53 54 53 55 59 61 62 61
19 22 25 28 32 34 34 35 36 36 35 35 38 41 44 44 44 40 40 40 41 42 42 42 42 42 43 45 45 46 47 48 51 51 53 55 58 59 59 57 57 60 59
21 25 28 30 32 32 33 34 35 36 36 35 34 36 39 44 49 56 49 44 43 45 45 46 46 46 47 48 48 49 50 53 53 55 56 59 60 61 61 59 60 62 50
24 27 30 32 33 33 34 35 35 35 37 37 38 37 38 40 43 51 59 54 50 48 48 49 49 49 50 50 52 53 54 55 57 58 59 61 63 65 63 62 56 55 53
27 30 33 34 35 35 36 35 35 36 36 37 39 41 44 46 47 49 54 56 59 58 56 54 52 52 53 54 54 55 57 58 58 58 58 58 59 61 63 61 54 49 52
31 34 36 37 37 37 37 36 36 37 38 39 41 43 44 45 47 50 54 59 63 61 60 57 56 56 58 59 60 60 60 58 56 54 52 53 56 59 60 62 58 55 53
34 36 38 39 39 38 37 37 38 38 40 41 43 45 47 46 48 50 53 58 65 64 61 58 56 56 59 61 61 59 57 54 52 50 48 49 48 50 53 55 50 46 47
37 38 39 40 39 38 38 38 40 41 43 45 46 47 48 48 50 51 52 53 57 65 65 58 59 57 60 60 59 55 52 51 49 47 46 47 46 46 47 51 52 54 48
39 40 41 41 39 38 39 41 43 45 46 46 47 49 49 50 52 52 52 52 52 56 64 58 58 60 60 60 56 53 51 49 47 46 46 46 44 39 46 44 45 46 44
40 42 42 40 39 40 41 44 46 47 47 48 48 50 51 52 53 52 51 51 52 54 59 60 59 60 60 59 58 54 51 51 49 46 46 40 40 43 43 49 49 43 44
42 42 42 40 40 41 44 46 47 47 48 49 50 52 52 52 51 51 51 52 53 54 55 59 60 61 59 58 57 55 55 52 49 46 47 48 45 48 52 48 45 45 46
42 42 41 40 42 44 45 45 47 49 51 51 51 52 51 52 52 52 52 54 54 55 55 56 59 57 56 56 58 57 58 56 56 57 56 55 52 47 41 40 41 44 47
41 40 40 42 43 44 45 47 49 51 51 50 50 51 52 52 53 53 54 53 53 53 52 51 50 52 55 56 57 63 62 57 54 46 43 41 38 35 35 37 39 40 40
39 39 41 42 43 44 47 50 51 51 51 51 51 51 52 53 52 52 51 52 51 50 48 46 48 50 55 60 61 57 53 48 44 41 40 35 37 32 30 31 32 33 35
37 39 41 43 44 46 48 48 48 50 51 52 53 54 54 54 53 51 49 48 44 40 43 43 50 58 61 57 50 44 46 46 47 40 41 39 38 33 32 31 30 30 32
39 40 41 43 45 46 47 47 49 51 53 54 56 57 56 54 52 51 50 48 44 39 39 45 53 54 51 42 43 45 46 47 47 45 45 44 39 38 36 35 34 34 35
39 41 42 44 45 45 47 49 51 54 56 57 56 56 54 52 51 50 48 43 42 47 50 48 45 42 39 40 41 45 48 50 49 43 39 45 39 39 37 34 31 32 33
39 40 41 43 46 47 48 52 55 56 56 55 55 52 50 49 49 45 38 43 49 47 41 38 34 34 36 39 42 43 41 42 42 40 30 38 37 38 35 32 26 24 25
39 41 42 44 46 49 51 54 55 55 55 54 51 48 47 46 43 38 41 45 44 40 37 35 35 36 38 34 30 31 34 37 38 40 30 38 37 34 36 25 19 15 18
Wind_Direction
312 313 311 309 310 313 314 314 313 312 313 312 311 312 312 313 312 311 309 306 303 300 298 296 293 292 289 289 288 286 284 281 280 279 276 275 274 273 271 271 268 266 266
306 308 306 310 314 312 314 315 315 316 315 315 315 314 313 312 312 308 304 301 299 298 296 295 292 291 288 283 278 276 275 275 274 272 273 273 271 270 269 268 268 268 266
303 301 306 309 308 310 311 312 313 313 313 312 312 310 311 310 308 303 300 297 297 297 294 291 288 286 284 282 286 283 277 273 275 273 269 268 269 270 268 266 265 264 263
298 306 308 308 311 312 313 313 312 312 310 310 311 309 308 308 305 302 301 301 298 294 293 291 291 288 282 282 279 273 275 275 270 269 269 267 264 263 265 265 263 263 263
302 305 306 308 311 311 310 309 310 310 309 307 306 304 304 304 302 302 300 299 298 297 296 294 291 290 288 288 286 282 279 275 264 262 262 263 263 261 259 260 263 263 261
301 304 306 309 307 308 309 308 308 307 306 306 306 306 306 305 303 303 303 303 300 299 298 296 294 292 290 289 288 286 283 283 277 268 260 260 259 259 259 257 257 258 259
303 305 306 307 309 308 305 305 305 306 306 305 305 304 302 302 302 303 300 301 302 301 297 294 294 291 288 285 284 284 285 283 281 277 272 268 265 260 258 259 259 256 255
301 305 306 306 304 305 306 307 308 308 309 309 309 307 305 303 302 301 300 298 297 297 296 294 295 296 295 293 292 291 287 284 280 279 279 276 273 267 264 262 260 257 257
302 304 305 308 310 310 309 309 309 309 308 307 308 309 310 310 308 306 308 308 305 305 306 303 300 298 295 292 291 289 286 282 279 278 276 274 272 270 267 264 259 258 258
305 309 310 310 311 311 312 312 310 309 309 308 306 307 309 312 315 312 310 310 306 304 303 301 300 300 299 298 297 293 292 287 285 282 278 273 270 267 264 261 260 258 260
309 311 312 314 315 316 315 314 312 311 310 310 312 311 309 308 308 307 308 308 305 303 302 301 302 302 301 300 297 296 292 289 286 283 281 278 275 272 268 265 265 257 256
314 318 320 320 319 318 317 313 311 311 312 313 313 312 311 310 309 305 304 305 306 308 308 307 307 306 304 301 298 295 293 291 289 285 282 278 274 270 269 266 261 262 265
319 321 322 322 321 319 316 315 314 313 313 313 312 310 308 307 306 305 304 304 304 306 306 308 308 308 306 305 303 301 298 295 291 287 281 276 271 267 265 266 267 256 252
320 322 323 323 321 318 316 316 316 315 314 312 311 310 308 307 304 303 303 304 303 302 303 307 306 306 305 304 303 302 300 297 293 290 285 280 276 271 269 266 268 271 267
319 321 322 321 320 318 317 316 315 314 314 314 312 310 309 307 304 303 302 302 303 304 303 307 306 305 304 303 304 303 301 297 295 293 288 283 278 273 273 267 267 266 262
319 321 322 321 319 318 317 316 315 315 315 314 313 310 308 306 305 305 305 304 303 302 301 305 304 304 305 305 306 304 302 298 296 294 290 287 285 281 277 274 274 276 275
318 320 320 319 318 318 317 317 316 316 315 313 312 309 309 308 308 308 306 305 304 302 299 302 304 305 303 303 304 305 305 303 299 296 294 294 283 283 282 279 279 277 268
319 320 319 319 319 318 319 317 316 315 314 313 312 311 312 310 309 309 308 306 303 302 303 305 306 306 308 306 306 303 303 305 302 300 298 294 291 287 285 286 281 274 271
318 319 318 318 319 319 317 315 315 315 315 315 315 313 312 312 312 311 308 306 306 307 308 308 308 308 306 309 305 305 305 305 301 297 294 293 291 290 286 280 277 272 271
316 316 317 318 319 318 317 317 316 316 317 316 316 315 315 314 312 310 309 309 310 309 309 307 308 305 303 303 303 305 306 303 302 303 300 297 297 292 286 282 277 276 274
316 317 318 319 318 318 318 318 318 317 318 319 318 316 314 313 311 311 313 312 312 311 310 305 302 302 301 304 305 307 304 306 306 309 307 306 297 295 290 284 279 274 271
316 319 319 318 319 320 318 318 318 318 319 320 318 316 314 312 313 315 314 313 312 306 306 307 311 299 305 307 308 309 311 311 310 310 309 303 304 300 293 288 280 273 267
320 320 319 319 319 318 318 320 320 320 320 319 316 314 314 316 317 317 316 316 314 311 302 300 299 301 306 311 312 309 306 306 307 309 307 304 308 299 294 290 284 278 270
319 320 320 320 318 320 321 321 321 322 320 318 317 316 319 319 318 320 319 318 318 301 304 307 305 310 311 309 307 307 307 307 306 308 310 305 304 299 299 294 292 287 280
320 319 319 319 321 323 323 324 323 321 320 319 317 320 321 320 320 321 323 311 303 311 312 310 312 312 312 311 310 307 307 306 309 312 321 306 310 309 307 303 301 292 281
318 320 322 324 323 324 326 324 323 322 322 321 322 323 323 322 322 324 311 311 316 318 318 321 320 319 317 316 314 312 313 312 313 317 329 313 314 316 311 310 313 299 285